Regional Weather Roundup
Issued by NWS Sioux Falls, SD

Home | Current Version | Previous Version | Text Only | Print | Product List | Glossary On
Versions: 1 2 3 4 5 6 7 8 9 10 11 12 13 14 15 16 17 18 19 20 21 22 23 24 25 26 27 28 29 30 31 32 33 34 35 36 37 38 39 40 41 42 43 44 45 46 47 48 49 50
000
ASUS43 KFSD 270610
RWRFSD

WEATHER ROUNDUP FOR SE SOUTH DAKOTA/SW MINNESOTA/NW IOWA
NATIONAL WEATHER SERVICE SIOUX FALLS SD
100 AM CDT FRI APR 27 2018

NOTE: "FAIR" INDICATES FEW OR NO CLOUDS BELOW 12,000 FEET WITH NO
SIGNIFICANT WEATHER AND OR OBSTRUCTIONS TO VISIBILITY.


SDZ038>040-050-052>070-270700-
SOUTHEAST SOUTH DAKOTA

CITY           SKY/WX    TMP DP  RH WIND       PRES   REMARKS
BROOKINGS      CLEAR     42  36  79 S9        29.98F
CHAMBERLAIN    CLEAR     45  32  60 SW6       30.02S
6HR MIN TEMP:  44; 6HR MAX TEMP:  64;

HURON          CLEAR     45  33  63 SW7       29.97F
6HR MIN TEMP:  42; 6HR MAX TEMP:  63;

MADISON        FAIR      37  37 100 S7        30.00F
MITCHELL       CLEAR     46  33  60 SW8       30.01F
6HR MIN TEMP:  46; 6HR MAX TEMP:  62;

SIOUX FALLS    CLEAR     37  31  78 CALM      30.02F
6HR MIN TEMP:  37; 6HR MAX TEMP:  58;

WINNER         FAIR      47  30  51 SW7       30.04F
YANKTON        CLEAR     41  34  76 E3        30.03F
$$

MNZ071-072-080-081-089-090-097-098-270700-
SOUTHWEST MINNESOTA

CITY           SKY/WX    TMP DP  RH WIND       PRES   REMARKS
FAIRMONT       CLEAR     41  31  67 NW8       29.97F
JACKSON        PTCLDY    37  32  81 W5          N/A
LUVERNE        CLEAR     34  30  86 SW3       30.01F
MARSHALL       CLEAR     38  33  82 SW10      29.96F
6HR MIN TEMP:  38; 6HR MAX TEMP:  55;

MONTEVIDEO     CLEAR     41  34  75 W7        29.93F
PIPESTONE      CLEAR    N/A N/A N/A SW7       29.98F
REDWOOD FALLS  CLEAR     40  33  76 SW7       29.95F
TRACY          CLEAR     41  36  81 SW8       29.96F
WINDOM         CLEAR     39  25  56 CALM      29.98F
WORTHINGTON    CLEAR     40  34  79 SW6       29.99F
$$

IAZ001>003-012>014-020>022-031-032-NEZ013-014-SDZ071-270700-
NORTHWEST IOWA

CITY           SKY/WX    TMP DP  RH WIND       PRES   REMARKS
CHEROKEE       CLEAR     37  33  86 S5        30.02F
DENISON        CLEAR     37  30  75 CALM      30.05S
ESTHERVILLE    CLEAR     36  32  85 W9        29.98F
LE MARS        CLEAR     37  34  87 CALM      30.04S
ORANGE CITY    CLEAR     43  34  70 W3        30.03F
SHELDON          N/A     36  34  93 SW7       30.00F
SIOUX CITY     CLEAR     41  30  65 NW3       30.05S
6HR MIN TEMP:  38; 6HR MAX TEMP:  60;

SPENCER        CLEAR     36  32  85 W7        30.00F
6HR MIN TEMP:  35; 6HR MAX TEMP:  57;

STORM LAKE     CLEAR     43  32  65 NW7       30.01F
$$

ABBREVIATIONS USED IN REMARKS
   TC - TEMPERATURE IN CELSIUS
  WCI - WIND CHILL INDEX
   HX - HEAT INDEX
  VSB - VISIBILITY





USA.gov is the U.S. government's official web portal to all federal, state and local government web resources and services.